Overview Statistics Trail Chart Weather Telemetry Raw packets
 

This is the latest recevied weather packets stored in our database for station/object KN6DHD. If no packets are shown the sender has not sent any weather packets the latest 10 day(s).

<< 1 2 3 4 5 >>
Time Temp. Humidity Pressure Rain* Wind** Luminosity Snow
1777732015 12.78° C 91% 1012.7 hPa 0 mm - 40 W/m² -
1777731712 12.78° C 91% 1012.9 hPa 0 mm - 36 W/m² -
1777731409 12.78° C 91% 1012.6 hPa 0 mm - 31 W/m² -
1777731107 12.78° C 91% 1012.8 hPa 0 mm - 29 W/m² -
1777730805 12.78° C 91% 1012.7 hPa 0 mm - 26 W/m² -
1777730502 12.78° C 91% 1012.6 hPa 0 mm - 23 W/m² -
1777730197 12.22° C 91% 1012.4 hPa 0 mm - 19 W/m² -
1777729895 12.22° C 91% 1012.6 hPa 0 mm - 18 W/m² -
1777729591 12.22° C 92% 1012.7 hPa 0 mm - 17 W/m² -
1777729288 12.22° C 92% 1012.6 hPa 0 mm - 13 W/m² -
1777728985 12.22° C 92% 1012.3 hPa 0 mm - 11 W/m² -
1777728681 12.22° C 92% 1012.2 hPa 0 mm - 8 W/m² -
1777728378 12.22° C 92% 1012.3 hPa 0 mm - 6 W/m² -
1777728076 12.22° C 93% 1012.1 hPa 0 mm - 3 W/m² -
1777727772 12.22° C 93% 1012.1 hPa 0 mm - 2 W/m² -
1777727469 12.22° C 93% 1012.1 hPa 0 mm - 0 W/m² -
1777727167 11.67° C 93% 1012 hPa 0 mm - 0 W/m² -
1777726865 12.22° C 93% 1012.1 hPa 0 mm - 0 W/m² -
1777726570 11.67° C 93% 1012 hPa 0 mm - 0 W/m² -
1777726258 12.22° C 93% 1012 hPa 0 mm - 0 W/m² -
1777725954 12.22° C 93% 1012 hPa 0 mm - 0 W/m² -
1777725651 12.22° C 93% 1011.9 hPa 0 mm - 0 W/m² -
1777725350 12.22° C 92% 1012.1 hPa 0 mm - 0 W/m² -
1777725046 12.22° C 92% 1012 hPa 0 mm - 0 W/m² -
1777724743 12.22° C 92% 1011.8 hPa 0 mm - 0 W/m² -

* Rain latest hour (hover to see other rain measurements)
** Current wind speed in m/s (hover to see current wind gust speed)